Flag for Canada Weather past 2 weeks in Riverview, New Brunswick, Canada

Now
54 °F

Passing clouds.


Feels Like: 50 °F
Forecast: N/A
Wind: 13 mph from Northwest

Location: Moncton

Current Time: Sep 19, 2014 at 5:50:52 PM

Latest Report: Sep 19, 2014 at 5:00 PM


Visibility: 15 mi

Pressure: 30.28 "Hg

Humidity: 26%

Dew point: 19 °F

Location of RiverviewLocation

Historic Weather in Riverview — Graph

°F

Riverview temperature yesterday

Maximum temperature yesterday: 64 °F (at 11:00 AM)
Minimum temperature yesterday: 41 °F (at 11:00 PM)
Average temperature yesterday: 53 °F

Past Weeks' High & Low Weather Summary

 TemperatureHumidityPressure
High84 °F (Sep 6, 2:00 PM)100% (Sep 6, 9:56 PM)30.47 "Hg (Sep 6, 9:56 PM)
Low34 °F (Sep 19, 8:00 AM)24% (Sep 8, 3:00 PM)29.65 "Hg (Sep 6, 6:00 PM)
Average58 °F72%30.04 "Hg
* Reported Sep 4 4:00 PM — Sep 19 4:00 PM, Riverview, Weather by CustomWeather, © 2014

Note: Actual official high and low records may vary slightly from our data, if they occured in-between our weather recording intervals... More about our weather records

Advertising

Riverview weather history for previous 24 hours

 ConditionsComfort  
Time TempWeatherWind HumidityBarometerVisibility
4:00 PM
Sep 19
54 °FPassing clouds.14 mph26%30.27 "Hg15 mi
3:00 PM54 °FPassing clouds.20 mph28%30.27 "Hg15 mi
2:00 PM52 °FPassing clouds.16 mph35%30.26 "Hg15 mi
1:00 PM48 °FPassing clouds.20 mph43%30.25 "Hg15 mi
12:00 PM48 °FPassing clouds.15 mph50%30.24 "Hg15 mi
11:00 AM45 °FPassing clouds.15 mph57%30.24 "Hg15 mi
10:00 AM43 °FPassing clouds.12 mph61%30.23 "Hg15 mi
9:00 AM39 °FPassing clouds.12 mph65%30.21 "Hg15 mi
8:00 AM34 °FPassing clouds.7 mph75%30.18 "Hg15 mi
7:00 AM36 °FPassing clouds.9 mph65%30.15 "Hg15 mi
6:00 AM36 °FClear.9 mph70%30.12 "Hg15 mi
5:00 AM36 °FClear.12 mph70%30.10 "Hg15 mi
4:00 AM37 °FClear.12 mph70%30.08 "Hg15 mi
3:00 AM37 °FClear.9 mph75%30.06 "Hg15 mi
2:00 AM39 °FClear.10 mph70%30.05 "Hg15 mi
1:00 AM39 °FClear.8 mph75%30.05 "Hg15 mi
12:00 AM41 °FClear.7 mph76%30.04 "Hg15 mi
11:00 PM
Sep 18
41 °FPassing clouds.8 mph81%30.03 "Hg15 mi
10:00 PM43 °FPassing clouds.7 mph76%30.01 "Hg15 mi
9:00 PM46 °FPassing clouds.8 mph71%29.99 "Hg15 mi
8:00 PM48 °FScattered clouds.8 mph71%29.97 "Hg15 mi
7:00 PM52 °FScattered clouds.10 mph67%29.95 "Hg15 mi
6:00 PM55 °FPartly sunny.9 mph63%29.93 "Hg15 mi
5:00 PM55 °FPartly sunny.16 mph67%29.91 "Hg15 mi
Weather by CustomWeather, © 2014

See weather overviewHow to use our weather pages